Weather History for Fairbanks, AK

Change the Weather History Date:

Tuesday, September 13, 2011

  Actual Average Record
Temperature  
Mean Temperature 56 °F 46 °F  
Max Temperature 72 °F 57 °F 74 °F (1965)
Min Temperature 40 °F 36 °F 20 °F (1927)
Degree Days  
Heating Degree Days 9 19  
Month to date heating degree days 158 209  
Since 1 July heating degree days 498 598  
Cooling Degree Days 0 0  
Month to date cooling degree days 0 0  
Year to date cooling degree days 39 61  
Growing Degree Days 6 (Base 50)    
Moisture  
Dew Point 42 °F    
Average Humidity 71    
Maximum Humidity 86    
Minimum Humidity 39    
Precipitation  
Precipitation 0.02 in 0.04 in 1.59 in (1925)
Month to date precipitation 0.49 0.57  
Year to date precipitation 7.65 8.14  
Snow  
Snow 0.00 in 0.10 in 7.80 in (1992)
Month to date snowfall 0.0 0.4  
Since 1 July snowfall 0.0 0.4  
Since 1 September snowfall 0.0 0.4  
Snow Depth 0.00 in    
Sea Level Pressure  
Sea Level Pressure 29.57 in    
Wind  
Wind Speed 5 mph (NE)    
Max Wind Speed 9 mph    
Max Gust Speed -    
Visibility 10 miles    
Events Rain    
T = Trace of Precipitation, MM = Missing Value Source: NWS Daily Summary

Daily Weather History Graph

Daily Weather History Graph

Search for Another Location

Airport:

Trip Planner

Search our weather history database for the weather conditions in past years. The results will help you decide how hot, cold, wet, or windy it might be!

Date:

Astronomy

Sep. 13, 2011 Rise Set
Actual Time 7:07 AM AKDT 8:25 PM AKDT
Civil Twilight 6:16 AM AKDT 9:16 PM AKDT
Nautical Twilight 5:11 AM AKDT 10:20 PM AKDT
Astronomical Twilight 3:45 AM AKDT 11:43 PM AKDT
Moon 7:39 PM AKDT (9/13) 9:28 AM AKDT (9/13)
Length of Visible Light 14h 59m
Length of Day
13h 18m
Full, 98% of the Moon is Illuminated
Sep 13
Full
Sep 20
Last Quarter
Sep 27
New
Oct 3
First Quarter
Oct 11
Full

Hourly Weather History & Observations

Time (AKDT) Temp. Windchill Dew Point Humidity Pressure Visibility Wind Dir Wind Speed Gust Speed Precip Events Conditions
12:53 AM 45.0 °F 40.6 °F 39.0 °F 80% 29.66 in 10.0 mi ENE 8.1 mph - N/A   Mostly Cloudy
1:53 AM 45.0 °F 41.2 °F 37.9 °F 76% 29.64 in 10.0 mi NE 6.9 mph - N/A   Mostly Cloudy
2:53 AM 44.1 °F 40.1 °F 37.9 °F 79% 29.63 in 10.0 mi NE 6.9 mph - N/A   Mostly Cloudy
3:53 AM 43.0 °F 38.8 °F 37.0 °F 80% 29.62 in 10.0 mi NE 6.9 mph - N/A   Mostly Cloudy
4:53 AM 42.1 °F 37.7 °F 37.0 °F 82% 29.60 in 10.0 mi ENE 6.9 mph - N/A   Mostly Cloudy
5:53 AM 41.0 °F 39.0 °F 37.0 °F 86% 29.59 in 10.0 mi NNE 3.5 mph - N/A   Mostly Cloudy
6:53 AM 41.0 °F - 37.0 °F 86% 29.58 in 10.0 mi Calm Calm - N/A   Mostly Cloudy
7:53 AM 41.0 °F - 37.0 °F 86% 29.58 in 10.0 mi Calm Calm - N/A   Mostly Cloudy
8:53 AM 44.1 °F - 39.0 °F 82% 29.58 in 10.0 mi Calm Calm - N/A   Mostly Cloudy
9:46 AM 48.2 °F - 41.0 °F 76% 29.56 in 10.0 mi Calm Calm - N/A   Mostly Cloudy
9:53 AM 50.0 °F - 41.0 °F 71% 29.58 in 10.0 mi Calm Calm - N/A   Mostly Cloudy
10:53 AM 52.0 °F - 42.1 °F 69% 29.60 in 10.0 mi NE 4.6 mph - N/A   Mostly Cloudy
11:53 AM 54.0 °F - 41.0 °F 62% 29.59 in 10.0 mi ENE 4.6 mph - N/A   Mostly Cloudy
12:53 PM 55.0 °F - 44.1 °F 67% 29.60 in 10.0 mi NNW 3.5 mph - 0.00 in Rain Light Rain
1:53 PM 55.9 °F - 46.0 °F 69% 29.56 in 10.0 mi NE 5.8 mph - 0.02 in   Mostly Cloudy
2:53 PM 63.0 °F - 46.9 °F 56% 29.56 in 10.0 mi East 5.8 mph - N/A   Scattered Clouds
3:53 PM 66.9 °F - 46.0 °F 47% 29.55 in 10.0 mi NNE 5.8 mph - N/A   Scattered Clouds
4:53 PM 70.0 °F - 45.0 °F 41% 29.53 in 10.0 mi NE 9.2 mph - N/A   Scattered Clouds
5:53 PM 71.1 °F - 45.0 °F 39% 29.51 in 10.0 mi NE 4.6 mph - N/A   Scattered Clouds
6:53 PM 70.0 °F - 48.0 °F 46% 29.50 in 10.0 mi North 4.6 mph - N/A   Scattered Clouds
7:53 PM 66.0 °F - 46.0 °F 48% 29.51 in 10.0 mi Calm Calm - N/A   Scattered Clouds
8:53 PM 54.0 °F - 48.0 °F 80% 29.53 in 10.0 mi Calm Calm - N/A   Partly Cloudy
9:53 PM 50.0 °F - 46.0 °F 86% 29.55 in 10.0 mi WNW 4.6 mph - N/A   Partly Cloudy
10:53 PM 48.0 °F - 44.1 °F 86% 29.56 in 10.0 mi Calm Calm - N/A   Partly Cloudy
11:53 PM 46.9 °F - 43.0 °F 86% 29.57 in 10.0 mi Calm Calm - N/A   Partly Cloudy